RH
30 40 46 37 39 34 36 40 42 39 32 28 30 31 28 41 37 40 46 54 62 64 67 67 68 63 58 55 52 53 56 65 69 70 68 69 74 76 75 72 70 67 66 66
35 46 35 33 34 38 39 43 44 39 35 28 30 34 31 43 41 37 39 54 65 72 74 70 70 65 58 56 54 54 54 59 66 68 68 70 73 77 76 74 71 69 67 68
40 28 29 31 31 34 35 39 38 40 30 30 33 39 32 30 37 33 36 48 58 65 71 69 70 68 61 59 57 56 57 59 64 68 71 71 73 76 76 78 75 74 69 68
34 28 30 29 33 30 37 31 37 33 35 46 32 48 32 31 30 32 43 57 60 62 64 65 72 72 63 62 62 61 61 61 65 70 70 69 68 77 82 80 79 74 70 72
39 30 30 33 31 28 34 33 34 34 38 41 39 44 33 26 24 32 46 47 63 65 67 72 73 68 61 64 64 63 64 67 66 64 63 64 71 78 80 79 79 76 71 72
37 28 26 29 26 26 29 30 38 46 46 63 45 40 42 38 38 48 54 61 67 70 73 73 68 64 69 70 68 70 70 71 68 66 67 66 70 74 76 81 80 74 71 74
40 38 32 28 34 28 29 39 59 53 64 58 41 48 41 43 59 63 70 69 75 75 76 76 75 76 76 74 73 74 71 72 70 70 70 72 73 73 74 77 80 76 72 62
47 50 35 30 35 35 40 42 62 60 61 52 37 46 33 59 62 62 66 73 75 80 75 73 68 76 78 74 74 74 72 74 73 72 74 74 73 73 75 74 75 81 62 50
47 39 22 23 25 30 38 47 34 46 48 62 48 36 44 63 62 62 68 71 81 82 79 72 81 76 74 74 74 73 73 74 74 75 76 75 74 73 73 66 71 55 37 53
38 41 24 21 21 22 32 32 43 50 51 58 47 42 44 56 61 67 74 76 81 80 80 82 86 81 76 74 74 77 75 74 75 76 76 75 74 72 67 56 57 38 36 57
34 34 34 21 23 27 29 32 36 42 50 52 67 61 50 41 56 63 68 77 76 79 79 92 91 81 78 77 78 79 80 78 77 77 76 76 71 73 58 55 58 37 35 58
31 37 36 28 26 26 22 28 35 52 59 66 81 72 43 67 58 63 65 72 79 76 89 92 94 88 85 83 83 82 83 81 78 77 79 76 69 67 58 60 62 34 34 57
44 48 59 34 24 34 39 36 36 47 52 48 68 60 45 55 53 62 68 72 79 86 96 96 97 96 95 90 87 84 83 83 82 80 80 77 70 73 60 60 62 40 31 47
45 47 47 54 42 43 39 38 35 38 70 57 51 54 45 54 56 54 68 73 80 85 91 94 96 97 98 93 88 85 84 82 88 74 77 80 73 71 61 56 57 52 34 39
40 50 49 41 35 47 42 38 39 45 45 50 38 43 37 55 58 62 63 60 75 90 92 92 95 97 99 97 92 87 86 92 83 72 75 78 79 71 68 56 58 58 45 40
45 51 44 46 39 47 48 45 49 49 48 51 53 56 45 45 53 56 56 65 78 91 90 90 91 96 98 99 98 91 93 81 81 71 70 72 73 78 70 61 59 57 54 49
63 57 62 55 48 57 78 67 56 53 61 57 65 50 51 54 55 61 61 72 78 87 90 91 90 90 93 93 95 90 86 81 78 70 66 64 65 67 75 70 58 58 61 57
65 70 74 67 69 94 57 46 46 63 59 59 52 50 54 54 59 69 79 83 85 90 88 85 86 86 85 86 90 84 80 76 75 72 65 61 61 61 67 70 62 58 63 64
67 60 63 84 85 59 51 38 38 51 54 48 53 55 60 70 79 73 70 83 82 90 85 84 85 83 84 87 86 79 90 82 76 71 60 56 54 56 60 67 66 66 60 68
54 70 74 95 88 74 45 43 47 47 67 50 60 61 58 79 81 73 71 84 87 88 88 88 85 87 93 89 89 93 91 85 81 68 55 51 48 49 51 51 59 64 59 69
84 90 91 83 90 76 49 40 49 66 59 54 64 64 61 80 79 71 87 86 88 88 86 82 87 94 92 89 91 89 84 83 70 54 51 49 47 46 46 49 52 56 65 73
61 82 97 89 95 91 58 53 61 62 64 74 71 73 74 77 77 84 91 94 94 96 92 93 93 93 93 89 87 84 80 71 60 51 50 49 48 47 47 50 55 64 70 78
75 67 89 81 83 81 78 79 70 74 74 73 74 70 74 80 79 92 97 97 96 98 99 91 91 93 92 83 77 77 69 67 52 50 49 50 51 51 54 56 60 71 79 83
86 85 98 98 98 84 71 61 69 68 76 71 75 80 82 81 80 93 95 92 91 90 87 86 89 89 88 81 77 63 63 57 52 52 54 56 56 60 63 69 72 75 81 87
86 89 95 95 74 69 67 63 68 62 69 77 79 81 75 81 85 88 87 84 85 87 85 84 87 86 82 77 73 65 58 56 59 59 61 66 71 72 75 79 77 75 74 73
74 80 94 80 70 75 70 65 58 63 68 75 79 78 69 77 82 79 81 78 82 83 85 85 81 79 75 72 68 66 60 59 60 66 70 69 72 78 77 77 76 54 42 43
Wind_Speed
1 2 8 9 6 2 1 3 5 6 6 4 6 4 5 6 4 6 8 10 9 8 9 20 22 21 19 16 14 12 13 14 16 17 15 11 12 11 11 12 13 15 16 16
1 7 8 5 4 5 4 5 7 7 6 3 4 7 9 7 7 15 11 8 11 8 8 14 23 23 19 17 14 12 11 11 14 14 11 8 12 12 11 10 11 13 15 16
7 4 5 6 5 4 5 5 4 8 3 2 4 6 6 4 4 2 5 9 13 17 16 13 17 21 20 18 15 12 10 9 10 13 13 14 13 10 10 9 11 14 14 15
7 6 9 11 6 7 7 8 9 4 2 4 1 7 4 6 5 3 7 9 14 15 13 13 15 21 21 17 14 12 10 9 10 11 11 8 10 11 9 8 8 10 13 14
8 1 3 3 6 7 6 5 6 3 3 1 1 3 1 2 4 3 4 5 7 7 11 11 16 24 20 18 15 13 13 12 12 11 12 13 15 14 10 8 6 10 12 13
5 3 3 5 3 2 3 3 4 4 3 4 8 8 4 3 2 1 1 2 8 10 10 12 21 24 20 17 17 15 15 13 13 13 12 12 13 12 10 7 6 9 11 12
5 5 6 7 6 3 3 4 3 2 1 6 2 2 6 3 1 2 6 5 7 9 12 13 13 18 21 21 18 18 18 16 14 14 13 12 12 11 11 8 6 8 11 12
3 7 3 2 16 8 8 9 5 5 4 3 1 5 5 1 1 1 2 6 7 9 11 14 18 15 22 23 20 18 18 17 15 15 14 13 12 10 10 8 7 8 10 11
3 5 3 3 3 8 4 5 8 2 2 2 4 5 3 1 3 1 3 5 7 8 9 13 11 21 26 25 20 20 20 18 16 16 15 13 11 9 10 10 11 11 10 10
4 5 3 5 1 1 4 5 3 0 4 4 4 4 5 4 7 5 7 8 8 7 10 7 12 21 26 23 21 19 18 18 17 16 14 14 11 10 11 12 13 12 12 12
2 4 7 3 2 0 3 0 4 3 2 2 2 5 5 6 7 10 9 9 11 11 11 6 11 20 25 22 21 19 18 18 17 16 15 14 12 13 13 13 12 12 12 12
6 2 3 6 4 3 1 2 3 3 4 2 2 8 3 6 4 4 7 8 8 8 7 9 14 22 25 24 21 20 19 18 17 16 17 15 14 15 14 14 12 12 13 13
6 4 4 7 3 4 4 2 4 4 2 3 3 9 1 5 3 5 9 8 8 7 10 10 13 16 21 25 23 21 19 18 17 17 18 17 16 16 15 14 13 13 13 13
11 3 7 7 6 1 5 2 3 4 2 3 10 12 11 10 9 8 8 9 9 11 14 13 11 16 21 26 25 23 21 22 21 18 19 19 18 17 16 14 12 12 12 13
5 10 9 15 15 5 6 7 8 7 6 7 21 18 7 7 9 10 10 9 6 10 14 16 15 16 20 24 25 23 23 23 23 19 20 20 19 17 16 14 12 11 10 12
1 5 3 7 9 9 12 7 7 11 15 13 21 23 14 15 8 8 11 9 9 10 13 13 14 20 23 23 23 24 24 25 24 21 21 21 19 18 16 14 12 11 10 10
2 3 3 14 6 7 9 7 12 6 4 7 12 12 8 8 8 9 12 8 10 10 11 15 17 23 25 26 25 23 26 26 24 23 22 21 19 17 18 16 13 11 10 8
6 4 3 5 4 11 5 3 5 6 7 11 14 13 12 9 7 8 7 7 7 8 12 14 19 23 25 24 24 25 27 28 26 24 22 21 19 19 20 18 16 13 10 7
10 8 6 6 10 13 8 9 4 6 7 10 11 9 5 2 4 7 1 2 3 8 10 18 22 24 24 26 28 30 25 28 27 24 22 22 21 21 21 21 19 15 12 10
7 2 5 3 4 7 3 3 2 3 9 6 3 2 2 2 4 5 6 2 3 8 15 18 23 25 26 28 31 28 28 29 28 26 24 22 23 22 22 20 19 17 13 11
2 1 9 10 6 5 6 6 4 4 7 3 1 3 2 4 5 2 2 2 5 11 17 21 24 26 28 33 32 28 32 31 28 25 24 23 22 21 19 19 18 16 16 13
4 4 4 3 4 6 5 2 6 4 3 4 5 5 6 7 6 2 4 6 7 9 17 20 19 18 24 30 33 31 32 30 28 26 25 23 22 20 19 19 17 17 17 15
3 5 2 5 3 4 4 7 8 2 5 8 4 6 6 8 5 6 6 7 6 12 15 18 18 19 23 30 33 33 31 29 29 26 25 24 22 20 18 19 19 18 16 15
3 3 2 1 2 8 14 13 8 5 8 10 7 7 6 9 6 6 6 7 6 13 15 20 21 19 21 29 30 30 30 31 29 27 25 23 22 20 18 17 17 17 17 16
5 5 5 5 13 12 14 13 7 8 7 8 7 7 8 7 5 6 7 8 9 13 15 22 21 21 25 29 27 28 30 32 30 27 25 22 20 19 18 17 17 17 15 15
5 6 4 6 8 6 6 5 8 11 11 9 6 7 4 7 7 7 7 11 15 15 18 18 20 22 26 28 27 27 30 31 30 26 25 24 22 19 18 17 17 15 13 13
Wind_Direction
96 135 218 213 207 204 316 238 256 272 256 243 241 257 270 207 204 204 181 169 166 147 148 159 156 153 145 144 145 144 147 143 151 146 135 125 104 91 75 57 43 37 35 33
15 232 231 207 204 236 235 263 269 280 256 200 268 266 271 176 216 212 197 168 153 144 152 159 160 157 155 151 149 148 149 154 168 170 158 141 124 101 87 68 50 40 36 36
197 218 119 173 202 224 231 217 239 240 296 292 333 279 236 225 234 170 151 165 169 169 169 169 162 162 157 160 154 145 141 143 145 164 156 137 118 103 90 69 54 40 34 34
246 240 237 246 229 187 249 211 229 209 145 239 44 285 227 226 220 165 169 178 181 179 173 158 147 157 168 159 148 139 130 129 133 151 156 159 135 115 95 84 63 43 38 37
244 225 204 198 226 179 251 189 187 172 195 21 230 287 79 49 197 148 79 217 188 167 156 147 148 166 169 159 149 143 138 135 127 135 143 137 117 111 108 86 59 35 39 40
269 307 213 216 273 193 95 66 48 56 103 260 190 194 261 187 171 263 51 74 144 143 136 131 157 169 166 157 149 149 145 133 136 133 132 127 126 127 115 97 76 51 47 40
323 248 231 191 253 322 145 92 307 305 169 244 320 190 249 183 309 286 300 158 132 138 144 150 161 172 163 155 148 151 148 140 139 137 133 129 125 123 112 100 82 56 48 42
272 321 183 208 214 205 203 165 186 216 208 271 336 238 261 225 16 14 32 136 141 158 165 167 178 160 152 157 154 154 149 141 142 139 135 132 127 120 109 104 101 85 55 44
215 263 302 213 238 175 210 182 216 221 74 39 236 296 292 208 267 248 177 168 182 179 175 175 144 152 162 166 161 157 153 147 147 144 142 135 127 120 110 104 103 93 72 67
248 289 248 280 185 20 184 163 119 36 192 227 270 270 241 265 244 224 221 208 200 190 188 173 156 157 167 167 160 158 158 153 148 148 147 138 129 124 116 110 102 81 76 80
225 165 272 344 343 348 7 74 56 132 88 258 259 258 215 242 220 213 222 214 202 198 195 153 147 162 168 163 162 161 160 155 152 154 151 142 132 130 119 109 105 79 81 88
327 172 283 245 318 289 50 39 100 143 253 166 174 265 308 285 265 225 243 224 203 192 164 152 154 158 165 166 167 166 165 162 162 160 156 145 138 132 121 117 107 84 85 96
332 357 342 331 340 19 54 50 108 100 76 217 183 264 295 338 317 243 235 228 208 171 152 153 159 167 167 170 169 171 171 172 168 168 160 151 145 142 128 120 115 94 89 97
170 198 274 272 265 211 269 198 150 125 157 239 243 283 262 267 274 276 251 241 206 186 178 171 172 173 170 174 176 175 174 175 168 171 166 161 154 147 136 123 121 109 91 94
167 241 243 269 274 229 235 219 192 200 211 224 275 258 287 242 246 247 248 267 220 196 184 185 179 172 171 178 180 179 178 176 168 167 167 165 161 151 146 133 129 122 105 96
197 214 217 279 285 243 259 238 216 226 239 244 260 267 279 265 249 263 257 252 239 206 197 186 178 172 177 179 179 179 180 174 171 167 168 165 162 166 157 152 144 137 123 104
223 240 218 266 274 288 267 197 227 219 197 223 256 264 256 275 254 247 259 230 233 203 184 180 181 179 179 182 177 176 172 170 173 174 172 170 172 173 173 168 161 161 148 123
216 204 201 277 309 249 247 198 225 239 243 246 266 268 255 257 279 266 240 245 231 185 177 181 178 179 178 175 172 169 170 174 178 180 179 180 183 182 178 177 178 176 171 157
211 243 266 255 244 274 286 270 235 194 268 252 242 266 270 329 309 294 280 210 225 184 176 172 176 172 165 166 170 176 174 178 181 182 182 182 183 180 179 184 188 189 179 175
231 178 215 221 248 261 192 154 114 132 293 295 195 320 334 71 348 276 349 48 114 142 152 158 162 159 159 170 178 171 175 183 186 186 184 184 185 185 184 186 190 193 193 186
117 122 227 237 253 281 245 227 125 209 254 324 334 300 278 210 207 246 117 112 149 155 156 154 160 167 174 175 176 174 181 187 186 183 184 186 188 189 190 190 193 194 193 196
215 192 205 218 229 265 351 2 187 214 271 252 254 256 254 259 272 242 164 153 146 140 146 157 162 163 171 177 176 176 184 186 183 184 185 187 189 191 191 193 192 194 197 198
249 196 199 201 236 304 270 263 282 225 265 282 251 242 234 262 216 187 179 164 155 157 161 166 155 153 169 182 184 178 186 182 181 184 187 188 189 192 193 194 195 195 201 207
283 350 202 24 148 270 285 302 267 252 250 278 263 255 237 242 211 185 165 161 153 161 161 166 159 155 164 183 189 190 182 181 182 184 186 188 192 192 196 199 205 209 211 216
214 154 195 236 264 270 251 251 254 293 292 289 285 239 229 219 211 179 176 165 167 168 168 170 166 167 174 185 190 192 186 185 187 189 187 189 194 200 202 209 215 219 227 231
182 202 189 245 218 221 254 269 300 301 285 280 271 291 237 203 198 168 179 170 165 168 170 169 174 174 181 186 191 193 193 191 192 191 195 197 197 200 205 208 208 210 210 214